GEOSCAN 1 (RS92S1)

Last updated on Thu Oct 30 2025 00:03:11 GMT+0000 (Coordinated Universal Time)

1 64880U 25155E 25302.17860520 .00016976 00000+0 69647-3 0 9998 2 64880 97.4279 266.2624 0006059 278.7197 81.3354 15.24292266 45502
UTC large
Height (km)
Speed (km/s)
/
Latitude / Longitude
Inclination (degrees)
Orbital Period (minutes)
Azimuth
Elevation
Range (km)
Doppler Factor

Next 0 passes for location: London (51.5072 / 0.1276)

Sorry there are no passes over London.